Location: Unspecified
(0.0000°N, 0.0000°E)
Time: 08:18:31
(UTC+00:00)

BlueWalker 3 - Pass Details

Date: 17 April 2026
Orbit: 450 x 457 km, 53.2° (Epoch: 9 April)

Event Time Altitude Azimuth Distance (km) Brightness Sun altitude
Rises 18:27:25 0° 355° (N) 2,448 5.7 -6.9°
Reaches altitude 10° 18:30:16 10° 20° (NNE) 1,580 4.4 -7.6°
Maximum altitude 18:32:21 15° 56° (NE) 1,318 3.7 -8.1°
Enters shadow 18:34:15 11° 89° (E) 1,544 3.8 -8.5°
